SCP
0 0 0 0 0 0 0 0 0 0 0 0 0 0 0 0 0 0 0 0 0 0 0 0 0 0 0 0 0 0 0 0 0 0 0 0 0 0 0 0 0 0 0 0
0 0 0 0 0 0 0 0 0 0 0 0 0 0 0 0 0 0 0 0 0 0 0 0 0 0 0 0 0 0 0 0 0 0 0 0 0 0 0 0 0 0 0 0
-0 0 0 0 0 -0 -0 0 0 0 0 0 0 0 0 0 0 0 0 0 0 0 0 0 0 0 0 0 0 0 0 0 0 0 0 0 0 0 0 0 0 0 0 0
0 0 0 0 -0 0 0 0 0 0 0 0 0 0 0 0 0 0 0 0 0 0 0 0 0 0 0 0 0 0 0 0 0 0 0 0 0 0 0 0 0 0 0 0
0 0 -0 0 -0 0 -0 -0 0 0 0 0 0 0 0 0 0 0 0 0 0 0 0 0 0 0 0 0 0 0 0 0 0 0 0 0 0 0 0 0 0 0 0 0
0 0 0 0 0 0 0 0 0 0 0 0 0 0 0 0 0 0 0 0 0 0 0 0 0 0 0 0 0 0 0 0 0 0 0 0 0 0 0 0 0 0 0 0
0 0 0 0 0 0 0 0 0 0 0 0 0 0 0 0 0 0 0 0 0 0 0 0 0 0 0 0 0 0 0 0 0 0 0 0 0 0 0 0 0 0 0 0
0 -0 0 0 0 0 0 0 0 0 0 0 0 0 0 0 0 0 0 0 0 0 0 0 0 0 0 0 0 0 0 0 0 0 0 0 0 0 0 0 0 0 0 0
0 0 0 0 0 0 0 0 0 0 0 0 0 0 0 0 0 0 0 0 0 0 0 0 0 0 0 0 0 0 0 0 0 0 0 0 0 0 0 0 0 0 0 0
0 0 0 0 0 0 0 0 0 0 0 0 0 0 0 0 0 0 0 0 0 0 0 0 0 0 0 0 0 0 0 0 0 0 0 0 0 0 0 0 0 0 0 0
0 0 0 0 0 0 0 0 0 0 0 0 0 0 0 0 0 0 0 0 0 0 0 0 0 0 0 0 0 0 0 0 0 0 0 0 0 0 0 0 0 0 0 0
0 0 0 0 0 0 0 0 0 0 0 0 0 0 0 0 0 0 0 0 0 0 0 0 0 0 0 0 0 0 0 0 0 0 0 0 0 0 0 0 0 0 0 0
0 0 0 0 0 0 0 0 0 0 0 0 0 0 0 0 0 0 0 0 0 0 0 0 0 0 0 0 0 0 0 0 0 0 0 0 0 0 0 0 0 0 0 0
0 0 0 0 0 0 0 0 0 0 0 0 0 0 0 0 0 0 0 0 0 0 0 0 0 0 0 0 0 0 0 0 0 0 0 0 0 0 0 0 0 0 0 0
0 0 0 0 0 0 0 0 0 0 0 0 0 0 0 0 0 0 0 0 0 0 0 0 0 0 0 0 0 0 0 0 0 0 0 0 0 0 0 0 0 0 0 0
0 0 0 -0 0 0 0 0 0 0 0 0 0 0 0 0 0 0 0 0 0 0 0 0 0 0 0 0 0 0 0 0 0 0 0 0 0 0 0 0 0 0 0 0
0 0 0 0 0 0 0 0 0 0 0 0 0 -0 0 0 0 0 0 0 0 0 0 0 0 0 0 0 0 0 0 0 0 0 0 0 0 0 0 0 0 0 0 0
0 0 0 0 0 0 0 0 0 0 0 0 0 0 0 0 0 0 0 0 0 0 0 0 0 0 0 0 0 0 0 0 0 0 0 0 0 0 0 0 0 0 0 0
0 0 0 0 0 0 0 0 0 0 0 0 0 0 0 0 0 0 0 0 0 0 0 0 0 0 0 0 0 0 0 0 0 0 0 0 0 0 0 0 0 0 0 0
0 0 0 0 0 0 0 0 0 0 0 0 0 0 0 0 0 0 0 0 0 0 0 0 0 0 0 0 0 0 0 0 0 0 0 0 0 0 0 0 0 0 0 0
-0 -0 -0 0 0 0 0 0 0 0 0 0 0 0 0 0 0 0 0 0 0 0 0 0 0 0 0 0 0 0 0 0 0 0 0 0 0 0 0 0 0 0 0 0
0 0 0 0 0 0 0 0 0 0 0 0 0 0 0 0 0 0 0 0 0 0 0 0 0 0 0 0 0 0 0 0 0 0 0 0 0 0 0 0 0 0 0 0
0 0 0 0 0 0 -0 0 0 0 0 0 0 0 0 0 0 0 0 0 0 0 0 0 0 0 0 0 0 0 0 0 0 0 0 0 0 0 0 0 0 0 0 0
0 0 0 0 0 0 -0 0 0 0 0 0 0 0 0 0 0 0 0 0 0 0 0 0 0 0 0 0 0 0 0 0 0 0 0 0 0 0 0 0 0 0 0 0
0 0 0 0 0 0 0 0 0 0 0 0 0 0 0 0 0 0 0 0 0 0 0 0 0 0 -0 0 0 0 0 0 0 0 0 0 0 0 0 0 0 0 0 0
0 0 0 0 0 0 0 0 0 0 0 0 0 0 0 0 0 0 0 0 0 0 0 0 0 0 0 0 0 0 0 0 0 0 0 0 0 0 0 0 0 0 0 0
Wind_Speed_500mb
21 16 25 43 46 21 36 32 29 25 21 39 28 18 21 35 11 7 22 19 43 41 21 38 62 59 55 50 54 57 78 75 60 48 52 54 46 43 43 36 31 29 28 28
11 32 34 24 30 30 34 19 20 7 23 44 37 23 13 18 19 16 20 29 28 38 34 17 66 65 54 57 52 46 56 63 60 52 44 50 50 44 42 36 34 32 33 31
23 20 33 29 33 32 22 24 11 10 19 11 42 19 17 12 22 39 38 32 30 29 27 26 46 65 70 64 60 60 54 50 54 54 46 44 46 45 41 42 41 40 36 33
7 11 38 22 29 17 28 33 13 16 11 18 10 11 17 16 11 17 30 28 25 24 26 17 33 35 50 57 50 61 53 42 43 56 57 49 45 44 45 45 44 44 42 34
3 26 27 14 35 36 13 29 28 23 6 7 5 11 11 24 15 19 19 26 27 21 23 25 28 20 30 46 46 44 52 44 43 48 59 58 55 48 41 36 35 36 34 32
3 3 16 19 27 30 11 19 18 14 8 3 11 8 13 17 13 16 20 26 22 24 26 20 24 36 20 35 37 34 38 38 39 37 37 36 38 46 50 36 32 30 34 38
6 3 6 26 10 10 13 2 6 7 5 6 6 15 6 11 12 23 26 31 31 21 18 21 10 17 32 30 23 31 31 31 28 32 31 36 37 36 43 39 34 30 36 33
9 6 7 1 4 11 4 3 5 7 7 3 5 8 6 10 18 35 35 36 35 29 22 23 14 13 8 23 29 22 25 20 24 23 23 30 35 28 19 23 21 20 29 31
8 8 3 8 11 3 4 3 7 12 4 8 5 8 8 11 15 21 25 27 32 29 27 28 27 22 19 7 19 22 24 30 35 29 25 23 24 29 23 22 19 21 27 27
7 5 10 11 6 9 10 7 5 8 6 7 7 6 5 7 12 15 18 26 28 25 27 32 35 31 27 21 16 10 19 23 29 30 29 24 17 12 13 12 12 12 23 27
10 7 10 2 13 10 11 7 9 9 3 7 8 4 9 6 13 16 20 21 28 28 24 26 31 30 29 24 25 22 12 9 8 14 16 16 14 11 10 15 20 16 13 14
13 7 7 11 8 10 7 11 8 7 9 5 6 5 7 12 17 29 29 23 20 23 24 21 22 20 19 20 20 17 16 14 10 10 4 6 6 7 8 12 16 18 16 18
12 8 5 7 10 15 14 10 7 6 5 7 7 8 7 19 21 28 35 29 24 22 21 19 17 15 12 12 13 11 12 9 7 13 16 16 16 13 10 14 18 19 23 19
12 9 6 7 3 3 8 12 13 10 8 2 10 19 10 11 14 20 27 28 24 21 23 19 16 15 8 5 6 6 13 21 17 17 20 23 22 26 30 28 15 11 8 9
9 10 13 16 18 18 14 13 21 13 3 10 11 14 9 10 13 21 26 31 29 24 20 20 20 19 17 14 14 16 13 10 11 15 15 10 7 7 9 9 9 8 13 14
9 2 4 19 17 21 23 25 15 17 22 19 22 15 11 28 34 24 22 21 24 23 19 17 17 18 18 16 14 13 13 14 14 14 13 14 14 14 13 13 11 12 12 13
7 6 6 6 10 12 15 15 14 8 13 12 8 11 13 11 21 22 24 21 20 19 15 16 16 16 17 15 14 15 14 15 16 15 16 17 18 17 16 17 16 13 12 14
5 7 5 4 6 10 7 5 7 10 12 14 21 10 17 24 24 22 18 20 20 18 17 15 14 14 14 13 12 12 12 13 14 15 16 18 19 18 16 16 16 17 16 16
10 7 7 7 4 5 5 7 5 7 8 5 12 12 26 34 32 21 14 16 18 18 18 18 16 15 15 14 13 11 10 10 11 13 14 15 17 17 17 15 15 17 17 18
10 13 8 7 11 6 5 6 8 5 5 11 9 13 20 19 5 3 11 15 19 18 17 16 16 15 14 14 14 13 11 10 9 9 10 10 11 13 14 16 16 15 16 17
9 9 8 6 6 10 8 9 11 11 6 5 8 11 14 5 8 24 17 19 18 18 16 14 14 13 12 10 10 10 9 9 7 7 8 9 10 10 11 11 13 15 16 17
4 5 2 4 10 6 2 6 7 4 4 7 15 15 17 29 28 24 21 20 19 18 16 13 10 8 7 7 8 8 7 6 5 6 7 9 9 10 11 12 11 13 14 14
5 8 5 9 9 5 6 6 10 5 13 11 17 25 26 24 21 19 19 18 17 15 14 13 11 8 5 3 1 2 3 3 3 6 9 11 12 13 14 14 14 14 14 14
6 4 1 9 7 10 12 14 6 7 12 13 14 19 18 21 19 14 10 8 7 6 5 6 4 3 2 3 6 10 9 3 5 8 13 16 17 16 16 15 15 15 17 18
5 8 6 8 14 13 14 20 15 14 14 17 19 21 16 18 12 8 5 2 2 5 7 7 7 6 7 9 12 16 20 21 19 12 19 19 18 17 16 15 15 17 20 24
15 11 7 8 5 4 10 14 10 11 18 22 20 24 24 20 15 10 7 11 10 9 9 9 9 8 7 8 10 14 20 26 28 25 24 28 26 24 21 20 21 22 26 30
Wind_Direction_500mb
165 198 205 209 204 231 187 238 210 248 223 199 180 140 154 163 116 149 185 140 158 146 181 175 196 191 190 195 193 198 200 198 195 195 186 188 183 197 207 205 211 208 207 202
163 220 215 210 198 226 240 255 212 286 217 185 172 171 138 118 104 75 124 131 139 132 164 211 160 176 180 180 186 197 197 191 186 190 188 193 195 199 213 213 214 219 214 210
213 237 196 206 209 198 228 227 203 188 140 170 156 180 146 95 107 97 95 114 129 133 155 167 146 152 167 178 184 190 191 193 183 191 193 195 199 209 208 214 223 222 225 219
149 252 184 201 199 195 219 208 217 175 186 153 191 149 147 151 135 117 114 116 121 126 141 125 137 143 153 162 170 185 187 191 186 192 200 203 205 209 214 221 227 231 226 219
167 205 179 182 205 192 252 184 204 172 89 104 141 130 130 140 147 150 124 126 131 145 151 131 127 141 130 152 166 167 175 180 191 198 200 209 211 216 217 226 227 223 223 218
297 341 162 164 164 173 136 162 170 106 123 150 157 130 152 172 161 126 109 120 121 132 157 156 143 146 145 141 156 154 167 176 188 203 209 212 212 217 216 217 213 203 209 221
48 69 346 124 133 155 145 196 92 67 46 57 143 59 57 34 108 140 133 129 121 120 134 152 174 150 149 151 134 142 156 169 180 198 205 201 205 206 210 224 227 220 206 206
23 120 356 25 176 128 146 84 81 111 133 95 281 95 87 80 66 109 105 115 118 110 104 116 120 118 142 147 168 156 149 162 173 182 194 200 208 208 225 244 245 234 231 228
352 74 351 33 104 109 134 53 224 105 45 81 95 60 75 108 87 117 125 119 111 113 117 105 103 91 78 130 174 180 171 191 189 193 200 204 222 227 247 258 262 254 261 250
298 73 7 344 285 14 118 148 115 30 88 90 67 78 99 163 145 146 163 130 130 133 125 116 110 101 85 85 82 104 145 165 178 176 176 170 176 191 221 222 229 201 205 218
338 8 8 280 33 10 9 35 45 108 88 129 123 60 349 79 157 155 157 151 164 158 151 132 122 120 115 99 91 77 60 73 126 139 135 154 162 223 245 260 243 245 255 244
344 43 56 40 321 255 9 22 49 94 308 37 76 82 30 75 110 114 107 126 169 179 178 169 151 144 135 134 120 103 90 77 66 58 105 152 164 221 247 230 252 251 248 245
321 14 45 25 4 360 42 349 10 103 73 18 103 120 85 88 91 109 121 130 138 142 144 148 158 161 175 186 187 208 231 253 314 343 353 359 349 333 306 301 276 244 233 236
87 35 100 102 15 337 54 13 356 80 70 57 67 121 97 91 109 120 128 127 130 126 124 126 129 139 154 195 194 204 251 259 262 273 268 253 246 247 245 243 239 243 224 220
79 63 38 36 53 78 63 14 38 56 175 97 148 102 110 128 136 138 132 128 122 117 119 122 122 128 140 156 176 204 219 216 229 233 232 222 212 180 170 164 149 172 191 200
9 135 76 35 40 69 68 21 27 44 65 76 97 73 117 111 115 119 125 119 114 116 118 114 118 117 120 128 137 146 149 146 148 151 147 140 137 136 139 139 148 169 174 161
51 97 53 41 348 359 38 357 357 39 51 128 111 151 125 82 84 87 105 114 120 122 121 123 122 128 126 135 141 141 142 141 138 137 136 133 138 144 155 158 160 153 163 162
83 72 64 165 22 47 260 311 312 65 53 67 93 92 116 117 102 93 95 108 116 127 130 129 128 130 129 134 137 138 136 139 148 150 152 149 150 152 159 161 160 162 158 154
34 102 51 97 95 244 25 350 15 26 23 48 114 109 120 123 100 68 99 112 113 116 121 125 126 131 138 138 133 134 145 153 160 158 156 157 152 157 158 154 154 153 150 155
32 51 104 39 91 121 250 286 324 303 36 340 133 143 147 162 84 203 112 109 112 115 114 114 117 123 126 133 139 144 153 153 166 166 164 168 168 169 169 165 167 167 165 172
350 360 91 38 98 299 262 302 324 72 219 350 161 149 148 101 115 136 122 104 98 100 103 107 110 115 120 128 137 142 150 158 163 172 175 178 180 186 191 192 188 188 187 183
136 96 296 51 65 352 268 343 74 215 102 116 122 135 125 116 117 115 106 92 83 78 75 72 73 87 107 131 150 150 151 156 178 202 208 211 211 217 218 218 222 218 208 200
12 170 187 155 208 250 166 90 97 95 139 128 129 132 133 127 120 113 103 90 78 69 63 56 50 44 35 35 62 204 204 187 208 240 243 246 253 255 250 241 232 228 229 229
300 165 120 53 290 246 219 209 182 148 163 159 157 152 145 139 129 130 126 115 105 79 41 26 17 359 332 254 230 227 227 216 328 298 271 260 257 252 248 246 245 247 241 242
196 135 186 271 281 273 257 232 222 201 187 186 185 184 177 167 139 132 126 95 305 282 284 283 277 270 266 274 266 250 245 244 238 257 285 266 256 244 241 246 256 256 253 255
189 188 156 223 216 129 135 118 132 197 220 216 212 211 209 206 216 228 283 280 296 299 309 300 260 258 274 287 291 286 272 265 262 250 247 268 267 256 248 250 257 266 270 265
Wind_Speed_850mb
21 16 25 43 46 21 36 32 29 25 21 39 28 18 21 35 11 7 22 19 43 41 21 38 62 59 55 50 54 57 78 75 60 48 52 54 46 43 43 36 31 29 28 28
11 32 34 24 30 30 34 19 20 7 23 44 37 23 13 18 19 16 20 29 28 38 34 17 66 65 54 57 52 46 56 63 60 52 44 50 50 44 42 36 34 32 33 31
23 20 33 29 33 32 22 24 11 10 19 11 42 19 17 12 22 39 38 32 30 29 27 26 46 65 70 64 60 60 54 50 54 54 46 44 46 45 41 42 41 40 36 33
7 11 38 22 29 17 28 33 13 16 11 18 10 11 17 16 11 17 30 28 25 24 26 17 33 35 50 57 50 61 53 42 43 56 57 49 45 44 45 45 44 44 42 34
3 26 27 14 35 36 13 29 28 23 6 7 5 11 11 24 15 19 19 26 27 21 23 25 28 20 30 46 46 44 52 44 43 48 59 58 55 48 41 36 35 36 34 32
3 3 16 19 27 30 11 19 18 14 8 3 11 8 13 17 13 16 20 26 22 24 26 20 24 36 20 35 37 34 38 38 39 37 37 36 38 46 50 36 32 30 34 38
6 3 6 26 10 10 13 2 6 7 5 6 6 15 6 11 12 23 26 31 31 21 18 21 10 17 32 30 23 31 31 31 28 32 31 36 37 36 43 39 34 30 36 33
9 6 7 1 4 11 4 3 5 7 7 3 5 8 6 10 18 35 35 36 35 29 22 23 14 13 8 23 29 22 25 20 24 23 23 30 35 28 19 23 21 20 29 31
8 8 3 8 11 3 4 3 7 12 4 8 5 8 8 11 15 21 25 27 32 29 27 28 27 22 19 7 19 22 24 30 35 29 25 23 24 29 23 22 19 21 27 27
7 5 10 11 6 9 10 7 5 8 6 7 7 6 5 7 12 15 18 26 28 25 27 32 35 31 27 21 16 10 19 23 29 30 29 24 17 12 13 12 12 12 23 27
10 7 10 2 13 10 11 7 9 9 3 7 8 4 9 6 13 16 20 21 28 28 24 26 31 30 29 24 25 22 12 9 8 14 16 16 14 11 10 15 20 16 13 14
13 7 7 11 8 10 7 11 8 7 9 5 6 5 7 12 17 29 29 23 20 23 24 21 22 20 19 20 20 17 16 14 10 10 4 6 6 7 8 12 16 18 16 18
12 8 5 7 10 15 14 10 7 6 5 7 7 8 7 19 21 28 35 29 24 22 21 19 17 15 12 12 13 11 12 9 7 13 16 16 16 13 10 14 18 19 23 19
12 9 6 7 3 3 8 12 13 10 8 2 10 19 10 11 14 20 27 28 24 21 23 19 16 15 8 5 6 6 13 21 17 17 20 23 22 26 30 28 15 11 8 9
9 10 13 16 18 18 14 13 21 13 3 10 11 14 9 10 13 21 26 31 29 24 20 20 20 19 17 14 14 16 13 10 11 15 15 10 7 7 9 9 9 8 13 14
9 2 4 19 17 21 23 25 15 17 22 19 22 15 11 28 34 24 22 21 24 23 19 17 17 18 18 16 14 13 13 14 14 14 13 14 14 14 13 13 11 12 12 13
7 6 6 6 10 12 15 15 14 8 13 12 8 11 13 11 21 22 24 21 20 19 15 16 16 16 17 15 14 15 14 15 16 15 16 17 18 17 16 17 16 13 12 14
5 7 5 4 6 10 7 5 7 10 12 14 21 10 17 24 24 22 18 20 20 18 17 15 14 14 14 13 12 12 12 13 14 15 16 18 19 18 16 16 16 17 16 16
10 7 7 7 4 5 5 7 5 7 8 5 12 12 26 34 32 21 14 16 18 18 18 18 16 15 15 14 13 11 10 10 11 13 14 15 17 17 17 15 15 17 17 18
10 13 8 7 11 6 5 6 8 5 5 11 9 13 20 19 5 3 11 15 19 18 17 16 16 15 14 14 14 13 11 10 9 9 10 10 11 13 14 16 16 15 16 17
9 9 8 6 6 10 8 9 11 11 6 5 8 11 14 5 8 24 17 19 18 18 16 14 14 13 12 10 10 10 9 9 7 7 8 9 10 10 11 11 13 15 16 17
4 5 2 4 10 6 2 6 7 4 4 7 15 15 17 29 28 24 21 20 19 18 16 13 10 8 7 7 8 8 7 6 5 6 7 9 9 10 11 12 11 13 14 14
5 8 5 9 9 5 6 6 10 5 13 11 17 25 26 24 21 19 19 18 17 15 14 13 11 8 5 3 1 2 3 3 3 6 9 11 12 13 14 14 14 14 14 14
6 4 1 9 7 10 12 14 6 7 12 13 14 19 18 21 19 14 10 8 7 6 5 6 4 3 2 3 6 10 9 3 5 8 13 16 17 16 16 15 15 15 17 18
5 8 6 8 14 13 14 20 15 14 14 17 19 21 16 18 12 8 5 2 2 5 7 7 7 6 7 9 12 16 20 21 19 12 19 19 18 17 16 15 15 17 20 24
15 11 7 8 5 4 10 14 10 11 18 22 20 24 24 20 15 10 7 11 10 9 9 9 9 8 7 8 10 14 20 26 28 25 24 28 26 24 21 20 21 22 26 30
Wind_Direction_850mb
165 198 205 209 204 231 187 238 210 248 223 199 180 140 154 163 116 149 185 140 158 146 181 175 196 191 190 195 193 198 200 198 195 195 186 188 183 197 207 205 211 208 207 202
163 220 215 210 198 226 240 255 212 286 217 185 172 171 138 118 104 75 124 131 139 132 164 211 160 176 180 180 186 197 197 191 186 190 188 193 195 199 213 213 214 219 214 210
213 237 196 206 209 198 228 227 203 188 140 170 156 180 146 95 107 97 95 114 129 133 155 167 146 152 167 178 184 190 191 193 183 191 193 195 199 209 208 214 223 222 225 219
149 252 184 201 199 195 219 208 217 175 186 153 191 149 147 151 135 117 114 116 121 126 141 125 137 143 153 162 170 185 187 191 186 192 200 203 205 209 214 221 227 231 226 219
167 205 179 182 205 192 252 184 204 172 89 104 141 130 130 140 147 150 124 126 131 145 151 131 127 141 130 152 166 167 175 180 191 198 200 209 211 216 217 226 227 223 223 218
297 341 162 164 164 173 136 162 170 106 123 150 157 130 152 172 161 126 109 120 121 132 157 156 143 146 145 141 156 154 167 176 188 203 209 212 212 217 216 217 213 203 209 221
48 69 346 124 133 155 145 196 92 67 46 57 143 59 57 34 108 140 133 129 121 120 134 152 174 150 149 151 134 142 156 169 180 198 205 201 205 206 210 224 227 220 206 206
23 120 356 25 176 128 146 84 81 111 133 95 281 95 87 80 66 109 105 115 118 110 104 116 120 118 142 147 168 156 149 162 173 182 194 200 208 208 225 244 245 234 231 228
352 74 351 33 104 109 134 53 224 105 45 81 95 60 75 108 87 117 125 119 111 113 117 105 103 91 78 130 174 180 171 191 189 193 200 204 222 227 247 258 262 254 261 250
298 73 7 344 285 14 118 148 115 30 88 90 67 78 99 163 145 146 163 130 130 133 125 116 110 101 85 85 82 104 145 165 178 176 176 170 176 191 221 222 229 201 205 218
338 8 8 280 33 10 9 35 45 108 88 129 123 60 349 79 157 155 157 151 164 158 151 132 122 120 115 99 91 77 60 73 126 139 135 154 162 223 245 260 243 245 255 244
344 43 56 40 321 255 9 22 49 94 308 37 76 82 30 75 110 114 107 126 169 179 178 169 151 144 135 134 120 103 90 77 66 58 105 152 164 221 247 230 252 251 248 245
321 14 45 25 4 360 42 349 10 103 73 18 103 120 85 88 91 109 121 130 138 142 144 148 158 161 175 186 187 208 231 253 314 343 353 359 349 333 306 301 276 244 233 236
87 35 100 102 15 337 54 13 356 80 70 57 67 121 97 91 109 120 128 127 130 126 124 126 129 139 154 195 194 204 251 259 262 273 268 253 246 247 245 243 239 243 224 220
79 63 38 36 53 78 63 14 38 56 175 97 148 102 110 128 136 138 132 128 122 117 119 122 122 128 140 156 176 204 219 216 229 233 232 222 212 180 170 164 149 172 191 200
9 135 76 35 40 69 68 21 27 44 65 76 97 73 117 111 115 119 125 119 114 116 118 114 118 117 120 128 137 146 149 146 148 151 147 140 137 136 139 139 148 169 174 161
51 97 53 41 348 359 38 357 357 39 51 128 111 151 125 82 84 87 105 114 120 122 121 123 122 128 126 135 141 141 142 141 138 137 136 133 138 144 155 158 160 153 163 162
83 72 64 165 22 47 260 311 312 65 53 67 93 92 116 117 102 93 95 108 116 127 130 129 128 130 129 134 137 138 136 139 148 150 152 149 150 152 159 161 160 162 158 154
34 102 51 97 95 244 25 350 15 26 23 48 114 109 120 123 100 68 99 112 113 116 121 125 126 131 138 138 133 134 145 153 160 158 156 157 152 157 158 154 154 153 150 155
32 51 104 39 91 121 250 286 324 303 36 340 133 143 147 162 84 203 112 109 112 115 114 114 117 123 126 133 139 144 153 153 166 166 164 168 168 169 169 165 167 167 165 172
350 360 91 38 98 299 262 302 324 72 219 350 161 149 148 101 115 136 122 104 98 100 103 107 110 115 120 128 137 142 150 158 163 172 175 178 180 186 191 192 188 188 187 183
136 96 296 51 65 352 268 343 74 215 102 116 122 135 125 116 117 115 106 92 83 78 75 72 73 87 107 131 150 150 151 156 178 202 208 211 211 217 218 218 222 218 208 200
12 170 187 155 208 250 166 90 97 95 139 128 129 132 133 127 120 113 103 90 78 69 63 56 50 44 35 35 62 204 204 187 208 240 243 246 253 255 250 241 232 228 229 229
300 165 120 53 290 246 219 209 182 148 163 159 157 152 145 139 129 130 126 115 105 79 41 26 17 359 332 254 230 227 227 216 328 298 271 260 257 252 248 246 245 247 241 242
196 135 186 271 281 273 257 232 222 201 187 186 185 184 177 167 139 132 126 95 305 282 284 283 277 270 266 274 266 250 245 244 238 257 285 266 256 244 241 246 256 256 253 255
189 188 156 223 216 129 135 118 132 197 220 216 212 211 209 206 216 228 283 280 296 299 309 300 260 258 274 287 291 286 272 265 262 250 247 268 267 256 248 250 257 266 270 265